Theta_e
352 353 353 352 354 355 356 357 358 358 359 358 357 357 358 357 357 358 358 358 358 357 358 360 359 358 356 356 357 358 359 359 359 361 361 360 360 360 361 365 366 362 361 361 359 360 362 362 361 360 359 358 356 355 354 353 354 355 356 356 356 357 360 360 360 360 360 357 355 355 354 353 354 355 356 355 352 351 352 354 354 352 351 348 347
350 352 352 352 352 353 354 355 356 357 358 358 358 357 357 358 357 358 357 358 358 357 357 359 358 358 358 357 357 359 360 359 359 360 362 361 360 359 359 361 360 360 360 361 361 360 361 362 360 359 357 356 356 355 354 353 353 354 354 355 355 356 358 360 360 361 361 358 357 356 354 353 354 356 357 356 353 353 355 355 353 350 348 347 347
350 352 352 351 352 352 352 352 354 355 356 357 357 356 356 357 357 358 358 358 358 358 358 358 359 358 358 358 358 361 361 359 358 359 361 363 361 358 358 359 360 360 359 360 360 359 359 359 358 356 354 354 356 356 354 353 353 354 354 354 354 354 355 358 360 361 359 359 358 356 355 355 356 356 356 355 354 353 355 354 352 350 347 347 347
351 352 353 353 352 351 351 351 351 352 352 354 355 354 355 356 357 357 357 356 356 358 357 358 361 360 360 361 361 360 362 359 357 357 360 362 363 360 360 361 361 362 361 360 361 360 360 360 358 356 354 354 356 356 354 353 354 355 356 357 356 356 357 358 360 362 361 361 360 358 358 358 357 357 357 356 353 353 352 352 350 349 348 348 347
354 353 354 354 352 351 352 350 350 350 350 350 351 352 352 353 355 355 355 354 355 357 357 358 363 362 360 362 363 362 364 362 359 359 359 361 362 361 361 360 360 361 360 361 362 360 360 359 358 357 355 356 357 356 355 355 356 357 356 356 357 358 359 360 360 360 360 360 360 360 360 359 358 358 357 356 353 352 352 351 351 350 350 350 347
356 355 356 355 353 351 350 349 349 348 349 348 349 350 350 350 353 353 353 353 353 356 357 356 360 362 360 360 362 363 364 363 363 363 360 360 361 360 361 361 361 361 361 361 360 359 358 357 357 357 355 356 356 356 356 356 356 356 354 355 357 358 359 359 359 360 360 362 362 359 358 356 354 355 355 353 353 352 352 353 352 352 351 349 349
361 359 358 355 353 353 351 349 348 347 348 348 346 347 348 347 349 350 350 350 351 354 356 356 358 360 360 359 360 363 364 363 364 364 362 360 361 361 361 360 361 360 360 359 357 356 355 355 355 356 354 355 355 355 355 356 355 355 355 357 357 358 357 356 356 357 358 359 357 354 352 351 351 351 351 350 350 350 351 351 351 349 349 349 351
366 364 361 357 354 355 352 351 351 349 347 348 347 345 347 346 346 347 347 348 349 349 352 354 356 358 359 358 359 361 363 362 363 364 363 360 359 361 361 360 361 360 358 357 356 353 352 351 350 352 353 354 355 355 354 354 355 355 355 355 356 356 356 355 354 355 355 355 353 352 352 352 352 351 349 348 347 348 347 347 347 348 349 351 352
367 367 364 360 357 357 355 354 355 355 353 351 349 346 346 346 346 346 346 347 346 346 347 348 351 354 356 357 357 358 360 361 360 360 361 360 358 358 359 359 359 357 356 356 355 354 351 350 349 348 349 351 354 355 353 351 352 353 354 356 357 357 357 356 356 356 356 356 355 354 353 352 350 348 347 345 344 344 343 343 345 347 347 350 351
366 367 365 364 365 364 363 362 362 361 360 359 357 353 350 350 349 347 348 348 346 346 346 345 345 348 351 353 354 354 353 354 354 356 358 359 357 358 359 359 358 359 358 357 356 354 352 351 349 349 349 350 351 352 350 348 347 349 350 354 356 358 359 359 358 357 356 356 355 352 350 348 346 344 344 344 342 342 343 344 346 347 349 351 352
361 364 366 366 368 369 368 367 365 364 364 364 362 360 357 355 353 351 350 350 350 350 348 347 346 345 345 348 350 350 349 347 349 352 355 357 357 358 358 359 359 359 359 358 357 355 352 350 350 349 349 350 352 352 349 348 348 348 349 350 351 352 355 356 358 357 356 356 353 351 349 347 347 347 345 344 343 343 345 347 349 350 352 354 356
356 359 362 363 366 367 365 366 366 365 365 366 365 364 363 360 359 357 355 353 352 352 350 350 350 347 346 346 346 347 348 347 348 350 353 353 353 354 354 354 355 355 355 356 356 354 352 351 349 349 348 350 353 354 352 352 354 352 349 347 347 348 349 350 353 355 355 356 354 354 353 351 350 350 348 346 348 350 352 353 355 356 356 357 357
352 353 355 358 362 362 360 362 364 363 363 363 364 365 364 363 361 360 361 359 356 355 353 352 351 350 347 345 346 349 350 349 351 353 354 353 352 352 352 352 351 350 351 353 353 352 353 353 353 352 349 350 351 352 353 355 356 356 354 354 351 348 347 348 349 350 352 355 357 356 356 354 354 354 353 352 355 357 357 358 358 358 358 358 359
350 348 349 353 356 355 354 355 357 357 358 358 360 361 361 362 362 359 360 360 357 357 356 354 353 353 352 349 350 353 352 350 353 354 353 353 351 351 350 352 351 349 349 350 351 352 354 355 356 356 354 354 355 354 354 354 357 361 362 360 358 356 354 353 352 351 351 353 354 355 355 356 356 355 354 355 357 359 359 358 358 359 360 360 360
347 346 347 349 351 350 351 352 351 352 353 352 353 354 351 351 353 354 354 353 352 353 354 354 353 354 353 352 352 354 354 352 353 353 352 352 351 350 349 350 352 350 348 347 349 351 354 355 357 358 358 358 358 357 358 357 358 360 360 359 359 357 355 354 354 354 353 353 353 353 354 354 354 354 353 353 354 355 355 356 357 358 359 359 358
342 343 344 346 347 347 349 350 350 350 349 346 347 350 350 346 347 350 351 350 352 352 352 353 351 350 350 351 351 353 353 354 353 353 353 353 351 351 352 353 353 351 349 349 350 351 353 356 359 359 359 358 357 358 359 360 359 359 359 359 358 355 351 350 350 351 352 352 353 354 354 352 351 351 352 350 351 352 353 354 356 357 357 358 359
338 339 340 341 343 343 344 346 346 347 347 345 345 348 350 348 347 349 350 351 352 352 351 351 350 348 348 350 350 349 349 350 352 352 353 353 353 353 355 356 356 354 353 353 353 352 353 356 357 357 356 356 356 356 357 358 358 357 358 359 358 356 353 350 349 350 350 349 351 352 352 352 353 353 353 353 354 355 355 355 356 357 357 358 358
335 337 338 339 340 341 342 343 344 344 345 345 345 346 347 346 346 348 347 347 348 347 346 347 347 348 348 348 348 345 344 346 348 349 350 350 350 352 355 356 356 355 354 354 352 351 354 355 354 354 353 352 352 352 352 352 353 355 357 357 357 357 356 354 353 354 354 354 354 354 353 354 354 355 355 355 356 357 356 355 355 357 356 356 356
335 336 337 339 340 340 341 341 342 344 344 345 345 345 345 344 344 344 343 343 343 343 343 343 343 345 346 345 345 343 342 342 343 345 346 347 348 351 353 355 355 354 353 353 351 352 353 352 352 351 350 350 350 350 350 350 351 353 354 355 355 355 354 354 355 355 356 356 356 356 356 355 356 357 358 357 356 356 355 355 354 354 355 356 356
335 335 334 333 335 337 339 340 339 340 340 340 339 339 340 341 341 341 340 340 340 340 341 341 342 344 344 342 341 339 339 338 339 340 341 343 346 348 349 351 352 352 352 350 350 350 350 349 348 347 347 347 348 347 347 348 348 349 352 354 355 354 352 352 353 354 354 356 355 355 355 355 355 357 358 359 358 357 356 356 355 354 354 355 356
333 334 333 330 330 333 335 334 335 335 334 333 333 332 334 335 336 337 337 337 337 337 338 339 340 342 342 339 337 336 336 335 335 336 336 338 341 343 345 345 347 348 348 348 347 346 345 345 344 341 340 341 340 339 339 340 341 343 347 350 349 348 348 348 350 351 353 354 354 355 355 354 353 355 355 356 357 357 356 357 355 355 355 354 354
331 332 334 334 333 334 333 332 332 330 328 329 331 331 330 330 330 330 330 331 331 332 334 335 336 337 338 337 334 334 333 333 332 332 333 333 335 336 338 340 341 343 344 344 343 343 342 342 341 336 333 332 333 333 334 336 338 340 342 343 343 343 344 345 347 349 352 353 352 353 354 354 353 353 354 353 353 353 353 353 354 354 354 354 354
331 333 334 335 335 335 335 334 333 331 328 328 331 333 333 333 332 331 330 330 330 331 331 332 332 333 335 335 334 332 332 330 330 330 329 329 330 330 331 333 336 338 338 338 339 338 337 337 335 330 328 328 329 333 336 335 336 339 339 338 340 342 344 346 348 349 351 351 351 351 352 352 351 351 352 352 351 350 350 351 352 352 352 353 352
330 332 333 334 334 334 334 335 334 333 333 332 333 334 334 334 335 334 334 334 335 334 333 333 333 334 335 336 335 335 333 331 329 329 328 328 327 326 325 326 328 331 332 331 331 330 327 327 326 324 325 325 327 335 339 333 328 332 333 332 335 342 346 348 348 348 349 349 349 349 348 348 349 349 349 349 347 347 348 350 350 349 348 348 348
329 330 331 332 333 333 332 332 332 333 333 333 334 334 334 334 334 333 333 333 334 333 333 332 332 333 334 335 336 336 335 333 332 331 329 329 328 325 322 321 323 325 326 325 325 324 319 317 319 319 320 322 324 333 338 332 325 326 330 331 334 340 343 344 343 343 344 345 344 344 345 345 344 344 344 343 343 344 346 348 348 347 347 346 345
328 329 329 330 331 330 331 331 331 332 332 332 332 332 332 333 332 332 332 332 332 331 331 330 331 330 332 333 334 334 334 333 333 332 330 331 331 327 325 323 322 323 323 323 326 328 324 320 319 320 320 322 324 328 332 329 326 327 330 331 330 332 337 338 337 339 341 341 338 337 338 338 339 339 339 340 340 340 342 344 344 344 344 345 345
327 327 328 329 329 329 329 329 330 330 329 330 330 330 331 330 330 330 331 332 331 330 329 329 330 329 329 330 332 333 333 332 331 330 328 329 330 329 327 326 325 324 324 321 323 328 330 327 325 325 324 324 325 326 328 328 326 326 328 327 325 329 334 333 333 337 336 334 331 331 333 333 335 335 335 336 337 338 339 341 341 341 340 340 342
326 326 327 327 328 329 328 327 329 328 327 329 330 330 330 330 329 330 331 331 331 331 329 329 329 329 329 330 331 332 332 330 328 326 324 324 326 325 324 323 322 322 322 319 318 324 330 331 328 326 325 325 324 325 326 327 325 325 326 324 324 327 329 327 329 331 329 326 327 329 330 330 331 331 331 332 334 336 337 337 337 338 338 339 341
327 326 326 326 327 327 326 327 328 327 326 327 328 327 328 329 329 329 328 327 328 329 328 327 328 328 329 330 330 331 331 327 324 323 322 320 320 320 319 318 318 318 318 319 321 326 329 330 327 326 325 324 324 324 323 325 325 324 325 324 324 325 326 325 327 327 324 324 327 327 327 327 328 329 329 330 331 332 332 332 333 335 336 337 338
326 326 326 326 325 326 325 326 327 328 327 327 325 323 323 325 326 327 325 324 324 325 324 324 324 325 327 327 327 327 326 324 322 321 321 319 318 318 318 317 317 317 317 318 323 328 329 328 327 326 325 324 325 324 323 324 325 325 324 324 324 325 325 326 326 325 323 325 326 326 325 326 326 327 328 328 328 328 328 329 330 331 332 333 334
325 325 325 325 324 325 326 325 325 326 327 327 326 325 323 322 322 323 323 323 323 322 322 322 321 321 324 326 324 322 322 322 321 320 320 319 319 318 318 317 318 318 317 319 323 328 328 326 325 326 325 324 324 325 323 324 325 324 324 324 324 324 324 325 325 323 323 325 325 324 324 325 325 326 326 325 325 325 326 327 328 328 330 330 330
325 324 324 323 322 324 325 325 325 325 325 325 325 326 326 325 323 322 322 322 323 322 322 322 321 321 322 324 324 322 322 321 321 320 319 319 319 319 318 318 318 319 319 321 325 327 326 325 325 325 324 324 324 324 323 323 323 323 323 322 323 323 323 323 322 321 323 324 323 323 323 324 324 324 323 323 324 324 324 325 326 326 327 328 328
325 324 323 322 322 323 324 324 324 324 324 324 324 324 325 326 326 324 322 321 321 321 321 321 321 321 321 322 323 323 323 321 320 320 319 319 319 318 318 318 318 319 320 322 324 326 324 325 325 325 323 323 323 322 322 322 322 322 322 322 321 322 322 321 320 321 321 322 321 321 322 322 322 322 322 322 323 323 323 324 323 324 325 326 326
324 323 323 324 323 323 323 323 323 324 324 324 323 323 323 324 325 326 325 323 322 321 320 320 320 320 320 320 321 321 321 320 319 319 319 319 319 318 317 317 319 320 321 321 323 324 323 323 322 322 322 322 321 321 321 321 321 320 320 320 320 320 320 320 320 320 320 319 319 320 320 320 320 320 321 321 321 322 322 322 322 323 323 323 324
321 318 318 320 323 323 322 323 323 322 322 322 322 322 323 323 322 323 324 324 324 324 323 321 320 320 319 319 319 319 318 318 318 317 317 317 317 317 317 318 321 323 324 323 323 323 322 322 321 322 321 321 321 320 320 319 319 319 319 319 319 319 318 319 319 318 318 317 317 318 318 318 319 319 319 320 320 320 320 320 320 321 321 321 321
321 317 315 317 321 322 322 322 322 321 321 321 321 321 321 322 322 321 322 322 322 322 323 323 322 321 320 318 318 318 318 317 317 316 316 316 316 316 317 320 322 323 323 323 323 322 321 321 321 320 320 320 320 319 319 319 318 318 318 318 318 318 317 317 317 317 316 316 317 317 317 317 318 318 318 318 318 318 318 318 318 319 318 318 319
319 319 318 317 318 318 319 320 321 320 319 319 319 320 320 320 320 321 321 321 321 320 321 322 323 322 321 320 320 318 317 316 315 315 316 316 316 316 317 320 321 321 322 322 321 321 320 320 320 319 319 319 318 318 318 317 317 317 317 317 316 316 316 315 315 315 316 316 316 316 316 317 317 317 317 317 317 317 317 317 317 317 317 317 317
319 319 318 317 317 317 316 317 318 317 316 315 317 318 319 318 319 321 320 320 320 320 319 320 320 320 321 322 320 318 316 315 315 316 317 317 317 318 319 321 321 320 320 320 319 319 319 318 318 318 317 317 316 316 316 316 316 316 315 315 315 315 314 314 315 315 315 315 315 315 315 315 315 315 315 315 315 315 315 315 315 315 315 314 314
318 317 313 310 311 313 314 315 316 315 314 315 318 318 317 317 318 319 319 319 319 318 318 319 319 318 319 319 319 317 316 315 315 316 317 318 319 320 321 321 319 319 319 319 318 318 318 317 317 316 315 315 315 314 315 314 314 314 314 314 314 314 314 314 314 314 314 314 313 313 313 313 313 314 314 314 314 314 313 313 312 313 313 313 313
316 313 307 303 306 310 311 311 313 314 314 315 317 316 315 315 315 316 317 318 318 318 318 318 318 317 318 317 316 315 314 314 313 313 314 316 317 317 318 318 318 318 318 319 319 318 317 317 316 315 314 314 313 313 313 312 312 312 313 312 312 312 313 313 312 312 312 312 312 312 312 312 312 311 311 311 311 311 311 310 311 311 312 312 312
317 315 309 305 306 311 311 310 312 313 314 314 314 314 314 315 315 315 316 316 317 317 317 316 316 316 316 314 313 311 311 312 312 311 312 314 315 315 316 316 317 317 317 318 318 317 316 316 315 314 313 312 312 311 311 311 311 311 311 311 311 311 311 311 311 311 311 311 310 310 310 310 309 309 309 308 308 308 308 309 310 310 310 310 310
316 316 313 308 306 309 311 312 313 313 313 313 313 312 314 315 315 315 315 315 315 315 315 315 315 315 313 312 310 309 309 310 310 311 312 313 313 313 314 314 314 314 314 314 314 314 314 314 313 312 312 311 310 310 310 310 310 310 310 310 309 309 309 310 309 309 309 309 309 308 308 307 307 306 306 306 305 305 306 307 307 308 308 308 308
314 314 314 311 309 310 312 313 313 313 312 312 313 313 313 314 314 314 314 314 314 313 313 313 313 313 313 311 310 308 309 310 310 311 312 312 312 312 311 311 312 312 312 312 312 312 311 311 311 310 310 310 310 309 309 309 309 309 309 309 308 308 308 308 308 308 308 307 307 306 305 304 304 304 304 303 303 303 303 304 304 305 305 305 306
313 312 312 312 311 312 313 313 312 312 313 313 313 313 312 311 312 313 313 313 313 312 312 312 312 312 312 312 310 309 310 310 310 310 310 310 309 309 309 309 310 310 310 310 310 310 310 309 309 309 309 308 308 308 308 308 308 308 308 308 307 307 306 306 306 305 305 304 303 302 302 301 302 302 302 302 302 301 301 302 302 303 303 303 304
312 312 311 311 311 312 312 312 312 312 312 311 311 311 310 310 311 311 311 311 311 311 310 310 310 310 310 310 309 309 309 308 308 308 309 308 308 308 308 307 308 308 308 308 308 308 308 308 307 307 307 307 307 307 307 307 307 306 306 306 305 305 304 303 303 302 302 301 301 300 299 299 299 300 300 300 301 301 301 301 301 302 303 303 304
311 311 311 310 310 311 311 311 311 311 311 310 310 311 311 311 311 311 310 310 310 309 309 309 309 309 308 308 308 307 307 307 307 307 307 307 307 307 307 306 306 306 306 307 307 307 307 306 306 306 306 306 306 306 306 306 305 305 304 304 303 302 302 301 300 300 300 299 299 299 298 297 297 298 298 299 299 300 300 300 300 301 302 303 304
310 310 310 310 310 310 310 310 310 310 310 310 310 310 310 310 310 309 309 308 307 307 307 307 307 307 307 307 307 306 306 306 306 306 305 305 306 305 305 305 305 305 305 305 305 305 305 305 305 305 304 304 304 304 304 304 304 304 303 302 301 301 300 299 299 298 298 297 297 297 296 296 296 297 297 298 298 299 299 299 300 300 302 303 304
309 309 308 308 309 309 308 308 308 308 308 308 309 308 308 308 308 308 307 307 306 306 306 306 306 306 306 305 305 305 305 304 305 304 304 304 304 304 304 304 304 304 304 304 304 304 304 304 304 303 303 303 303 303 303 303 302 302 302 301 300 299 299 298 297 297 297 296 296 295 295 296 296 296 297 297 297 298 299 299 300 301 302 302 303
308 309 308 308 308 307 307 307 307 306 306 307 307 307 306 306 307 307 306 306 305 305 305 305 305 304 304 304 304 303 303 303 303 303 303 303 303 303 303 303 303 302 302 302 303 303 303 302 302 302 302 301 302 301 301 301 301 301 300 300 299 298 298 297 297 296 296 295 294 294 295 295 295 296 296 297 297 298 299 299 300 301 301 301 301
307 308 308 307 306 307 306 306 306 306 306 306 307 307 306 306 306 305 305 305 304 304 304 304 303 303 303 303 302 302 302 302 302 302 302 302 302 301 301 301 301 301 301 301 301 301 301 300 301 300 300 300 300 300 300 300 300 300 299 299 298 297 297 296 296 295 294 294 294 294 294 294 295 295 296 296 297 298 298 299 300 300 300 300 301
307 308 307 306 306 306 306 305 305 306 306 305 306 306 306 306 305 305 304 304 304 303 303 303 302 302 302 302 301 301 301 301 301 300 300 300 300 300 300 300 300 300 300 300 299 299 299 299 299 300 299 300 299 299 299 299 299 299 298 297 297 296 296 295 295 294 294 294 293 293 293 294 294 295 296 296 297 297 298 298 299 299 300 300 301
Wind_Speed
16 16 15 15 14 14 14 14 13 12 11 11 11 10 10 10 9 9 9 9 10 10 10 10 10 10 10 10 10 9 9 9 9 9 9 8 8 6 5 6 6 6 6 6 6 6 5 5 6 6 6 7 7 7 7 7 6 6 5 5 6 6 4 5 7 9 9 9 10 11 12 13 13 11 10 11 13 14 13 13 14 14 14 14 14
16 16 15 14 15 14 14 14 14 13 12 12 12 11 11 11 10 9 9 9 10 10 10 10 10 10 10 9 9 9 9 9 9 9 9 9 9 9 8 8 8 7 7 7 7 7 6 7 7 7 8 8 8 8 8 8 7 7 6 6 7 5 3 4 6 9 10 9 10 11 12 12 12 11 11 13 13 13 13 13 13 13 13 13 13
15 15 15 15 15 14 14 14 14 14 14 13 13 13 12 12 11 11 10 10 10 10 10 10 10 9 9 9 9 9 9 10 10 9 9 9 9 10 9 9 9 8 8 8 8 7 7 8 8 8 8 8 7 7 8 8 7 7 7 7 8 7 6 6 7 9 10 10 10 11 12 12 12 12 13 13 13 12 12 13 13 13 14 14 14
15 15 15 15 15 15 14 14 15 15 15 14 14 14 13 13 13 12 12 11 11 11 11 10 10 10 9 9 10 10 10 10 11 10 10 10 10 10 9 8 9 9 8 8 8 8 8 8 7 7 7 7 7 7 8 8 7 7 7 7 7 8 8 7 8 8 10 10 10 10 11 12 13 13 12 12 12 12 12 13 14 15 15 14 15
16 15 15 15 15 15 15 15 15 15 16 15 14 14 14 13 13 13 13 12 12 12 12 11 11 11 11 10 11 10 10 10 11 10 10 10 10 10 9 9 9 9 9 9 9 8 8 9 8 7 7 7 8 8 7 7 7 7 7 7 7 7 7 7 8 9 10 11 11 11 11 12 13 12 11 12 12 12 13 14 15 15 15 15 15
16 16 16 15 15 15 16 16 16 16 16 15 15 15 14 14 13 14 13 13 12 12 13 12 12 12 12 11 11 11 10 10 10 10 10 10 10 10 9 9 10 10 10 10 10 10 10 9 9 9 8 8 8 8 7 7 7 8 8 7 8 8 8 9 9 9 10 11 12 12 12 12 12 12 11 12 12 13 14 15 15 15 15 15 16
16 16 15 15 16 16 16 16 16 16 16 16 16 15 15 15 15 14 13 13 13 13 12 13 12 12 12 12 12 12 11 11 11 10 11 10 10 10 10 10 10 10 10 10 11 11 11 10 10 10 10 10 9 9 8 8 8 8 7 7 8 8 9 10 10 10 11 11 12 13 13 12 12 13 12 12 13 13 14 15 16 15 15 15 16
14 15 15 15 15 15 15 14 14 14 15 16 16 16 15 16 15 14 14 14 14 14 13 13 12 12 13 13 12 12 12 12 12 11 12 11 10 10 10 10 10 10 10 11 11 11 11 11 11 11 11 11 10 10 9 8 8 8 7 8 8 8 9 10 10 11 11 12 13 13 13 13 13 13 13 13 13 13 13 15 16 16 15 15 16
13 12 13 14 14 14 15 13 12 12 11 13 15 15 15 15 15 15 15 15 15 15 14 14 13 13 13 13 13 13 13 13 13 13 12 12 12 11 11 11 11 11 11 11 11 11 12 12 12 11 10 10 11 12 11 10 9 8 8 8 8 9 10 10 11 11 11 12 12 12 13 13 13 13 13 12 12 13 14 15 15 15 16 16 17
12 12 12 12 12 12 12 11 10 10 9 10 12 13 14 14 14 15 15 15 14 13 14 15 15 14 14 14 13 13 13 13 13 14 13 12 11 10 10 10 11 11 11 11 12 12 12 12 12 12 11 10 12 15 15 14 13 12 11 11 10 10 10 11 11 12 12 13 13 13 14 14 14 14 14 14 14 15 15 14 15 16 17 17 18
12 12 12 11 10 10 10 9 8 8 8 8 9 11 12 12 13 14 15 15 14 14 14 14 15 15 14 14 14 14 13 12 13 15 16 15 12 9 9 10 10 11 12 12 12 13 13 13 14 14 14 13 14 16 16 14 13 13 13 14 14 14 13 13 12 12 13 13 14 14 15 15 15 15 15 16 16 15 15 15 15 17 17 16 17
8 9 10 11 10 9 9 8 8 8 7 6 6 8 10 11 12 12 14 15 15 15 16 15 15 15 13 14 15 12 10 11 12 14 16 17 15 13 12 12 12 13 13 13 14 14 13 13 14 14 13 12 12 13 14 13 12 13 14 14 15 16 17 17 16 15 14 14 15 15 15 16 16 15 15 16 16 15 16 16 16 17 17 17 18
5 6 6 6 6 7 6 6 8 7 6 5 5 6 7 9 11 11 10 12 13 14 15 15 14 14 15 16 13 6 5 9 11 12 14 14 15 15 14 13 14 14 14 13 14 14 14 14 14 14 13 11 10 11 13 13 14 16 16 15 15 16 17 18 19 18 17 15 15 16 16 16 16 16 16 16 16 17 17 17 17 17 18 19 20
7 4 2 4 3 5 3 3 4 5 6 6 6 8 9 8 9 10 8 9 10 10 10 11 8 7 9 9 4 1 5 8 10 11 12 12 13 15 15 14 15 16 15 15 14 14 13 13 13 13 12 10 11 12 12 13 15 15 14 15 16 16 16 17 17 18 18 18 19 20 18 17 18 19 18 17 17 18 18 18 19 19 20 22 23
10 7 4 5 5 3 2 1 2 3 6 6 3 5 9 9 8 9 8 7 9 9 9 9 9 8 6 3 2 2 2 4 6 8 9 9 10 12 13 13 14 16 16 15 16 15 15 14 13 12 9 7 9 10 10 11 11 11 12 14 16 17 18 18 18 18 18 19 22 22 19 18 19 20 19 19 19 20 21 22 21 21 23 24 24
12 12 8 6 6 5 3 3 3 2 4 7 4 5 4 7 8 8 7 6 8 7 6 7 10 10 7 2 5 4 2 2 4 5 6 8 9 9 10 11 13 15 15 14 13 13 12 11 9 8 7 7 8 9 10 12 11 10 13 14 16 18 19 19 18 17 17 18 20 20 20 20 21 22 23 23 23 23 24 24 22 22 21 21 22
15 15 12 8 8 8 7 7 5 4 3 5 5 2 1 2 5 6 5 3 3 4 4 4 4 6 5 2 5 3 0 1 3 4 6 8 9 8 8 10 11 12 13 14 13 12 11 10 5 3 4 6 8 8 10 12 11 10 12 14 15 17 18 18 18 17 17 19 19 19 20 20 21 22 22 22 21 21 22 22 20 19 20 19 20
17 15 13 10 9 9 10 10 7 6 6 4 3 3 4 4 5 6 6 5 5 4 3 3 4 5 4 3 5 5 4 3 3 4 5 7 7 6 7 8 9 10 10 9 8 7 6 7 5 3 4 6 8 8 10 11 10 10 11 13 15 15 14 14 15 14 15 15 15 16 18 19 20 20 20 20 19 18 20 21 19 18 19 19 19
20 17 15 13 12 11 10 10 9 7 7 7 7 7 7 7 6 7 8 8 8 9 9 8 7 7 7 8 8 6 6 6 5 4 5 4 4 4 5 6 6 8 8 7 6 5 4 4 5 5 6 8 9 11 12 12 10 10 10 13 15 13 12 12 13 14 15 15 16 17 18 19 19 17 17 19 20 19 19 19 19 18 17 19 20
20 18 16 15 14 14 13 12 11 10 8 9 11 11 10 10 9 8 9 10 11 12 12 11 9 8 9 10 9 8 8 8 7 6 5 4 2 2 3 3 3 4 4 4 4 4 3 5 7 7 8 9 10 11 12 12 11 9 9 10 12 12 14 15 15 16 17 16 17 19 19 19 18 16 15 15 15 16 18 18 17 15 15 18 20
16 16 16 14 12 12 13 14 14 13 11 11 14 14 13 11 11 10 10 11 12 12 11 10 9 8 8 10 10 10 10 9 8 8 8 6 4 3 4 4 3 3 4 4 3 3 5 6 8 9 9 9 10 10 11 11 11 9 7 8 10 12 15 16 15 15 16 16 17 18 17 17 17 16 16 14 12 13 15 15 16 15 16 18 19
10 12 13 12 10 9 10 11 12 11 9 9 12 14 13 11 11 10 10 11 12 11 10 9 7 7 7 9 11 11 10 9 9 10 10 10 8 7 6 6 6 7 6 5 5 5 5 5 7 10 10 9 9 9 9 9 9 8 7 8 9 10 11 12 12 13 14 14 16 16 15 15 15 14 14 14 14 15 16 17 18 18 19 21 21
8 9 10 10 9 8 7 7 8 8 8 9 11 12 10 9 9 8 8 9 9 8 7 6 5 6 6 6 8 9 9 8 9 10 10 10 9 9 9 7 7 8 7 6 6 6 5 5 6 8 8 7 6 6 7 8 7 7 8 9 9 9 9 9 9 11 12 13 14 14 13 13 13 12 12 13 14 17 19 19 19 19 19 21 21
6 7 8 8 8 8 6 6 6 7 7 8 9 8 7 6 7 6 6 6 5 4 4 3 2 3 4 4 4 4 5 7 8 9 10 10 10 10 10 9 7 7 7 6 5 5 5 4 5 6 5 5 5 4 6 9 8 7 8 9 8 8 8 7 8 10 11 11 11 12 12 12 13 12 13 15 17 19 18 17 18 20 22 24 24
5 5 6 6 6 6 6 5 5 5 5 5 5 5 4 4 4 4 4 4 3 3 2 2 2 2 2 3 4 4 3 3 4 7 9 10 10 11 10 9 8 7 7 6 6 6 6 5 4 5 5 5 5 4 5 8 8 7 8 9 9 8 7 7 8 9 9 9 10 11 11 12 12 13 16 19 20 19 17 16 17 20 21 24 26
5 5 5 5 5 5 5 5 4 3 3 2 2 2 2 2 3 1 2 3 3 3 2 2 2 2 2 2 1 3 2 3 1 4 6 7 8 11 11 9 9 8 8 7 7 7 8 6 6 6 6 5 5 4 4 6 8 9 9 9 9 8 7 8 9 9 8 9 10 11 12 12 13 14 15 16 16 16 16 17 18 19 19 20 23
6 5 5 5 4 4 4 4 3 3 2 1 1 1 1 2 2 1 1 2 1 1 1 1 1 1 0 1 2 3 3 1 3 6 6 5 6 9 9 8 9 9 8 7 6 5 7 7 6 6 6 6 6 5 4 4 8 8 7 8 8 8 7 8 9 8 9 11 12 12 13 13 14 14 14 14 14 14 14 15 16 18 19 20 21
7 7 6 5 5 4 4 3 3 3 2 0 2 3 2 2 1 1 3 5 4 2 1 1 1 1 1 1 3 4 3 3 4 5 4 3 4 6 7 7 7 8 8 7 5 4 5 7 6 5 6 6 6 5 4 4 6 7 7 8 8 7 8 9 8 8 11 13 13 13 13 13 14 14 14 14 14 13 14 15 16 17 18 18 18
7 7 6 6 6 5 4 3 3 4 5 2 2 3 3 5 6 5 3 2 4 4 3 2 1 2 3 2 3 3 3 7 4 2 2 2 3 4 5 6 7 7 7 7 6 5 6 6 5 4 6 6 5 5 5 5 6 7 7 8 8 7 8 9 8 9 12 13 12 12 13 14 14 14 14 14 14 14 15 16 16 17 17 17 17
6 6 6 6 6 5 5 5 2 1 3 4 2 0 2 2 4 5 2 2 2 2 2 3 2 3 3 2 1 3 5 6 3 1 2 2 2 3 4 5 7 8 8 6 6 6 6 6 4 4 5 6 5 5 6 7 7 7 8 8 8 8 8 8 8 11 13 12 11 12 13 13 13 14 14 14 15 16 16 16 16 16 17 17 17
5 5 5 5 4 3 4 5 4 1 2 3 4 4 3 2 1 0 2 3 3 3 3 2 2 3 2 1 0 2 2 1 1 2 2 2 2 3 4 5 7 8 8 6 6 7 6 5 5 5 5 6 6 6 7 7 7 8 8 8 8 8 8 9 10 13 13 12 11 12 12 13 13 13 14 15 16 16 16 15 15 15 16 16 17
4 4 4 4 4 2 3 4 4 3 2 2 2 4 5 6 5 5 5 5 4 4 4 3 2 3 2 1 2 3 4 4 3 3 3 3 3 4 5 5 6 6 6 5 6 7 6 5 5 4 5 6 6 6 7 7 8 8 9 9 9 9 9 10 12 13 12 11 12 13 13 13 13 13 14 15 15 16 16 15 15 15 16 16 17
5 4 4 4 4 3 3 3 2 2 3 2 2 3 4 5 6 8 8 6 5 5 5 4 3 3 4 4 5 5 5 5 4 5 5 5 6 6 5 6 5 4 4 4 6 6 5 5 5 5 5 6 7 7 7 7 8 8 9 9 10 10 10 11 13 12 11 12 13 13 13 14 14 15 15 15 15 15 16 16 16 16 16 16 16
4 4 4 4 3 3 3 3 2 2 1 1 1 3 3 4 3 5 7 7 7 7 6 5 5 4 4 5 5 6 6 6 6 7 7 7 7 7 7 8 9 7 5 4 5 5 5 5 6 6 6 6 7 7 8 8 8 9 9 9 10 11 11 12 12 11 12 13 13 13 14 14 15 15 16 15 15 16 16 16 16 16 16 17 17
4 5 6 4 3 2 2 2 2 2 2 1 2 2 3 3 4 4 5 5 6 7 8 8 7 4 3 3 5 6 7 7 7 8 8 7 7 7 8 10 11 10 8 7 6 6 5 5 6 6 6 7 7 7 8 9 9 9 10 10 11 11 12 12 12 12 13 14 13 13 14 15 15 15 15 16 16 16 16 16 16 16 17 17 18
4 5 6 4 2 2 2 2 2 1 1 2 3 3 3 3 4 5 5 5 5 5 6 8 8 5 3 4 5 5 5 6 8 10 10 10 8 8 8 10 11 10 8 7 7 6 6 6 6 7 7 7 7 8 8 9 9 10 10 10 11 12 12 12 12 13 14 14 13 13 14 15 15 15 16 16 16 16 16 17 17 18 18 18 19
3 3 4 4 2 2 1 2 2 2 2 2 3 4 4 4 5 5 5 5 5 5 5 4 5 6 6 6 5 3 4 7 11 12 12 12 11 10 10 10 10 10 9 8 7 7 7 7 8 8 8 8 9 9 9 10 10 11 11 11 12 13 13 13 13 14 14 14 14 14 14 15 15 16 16 17 17 17 17 18 19 19 19 20 21
2 3 5 5 3 2 2 2 3 3 4 4 4 4 4 5 5 5 6 5 5 5 5 5 5 5 6 7 6 2 4 9 11 10 9 11 11 11 11 11 10 9 9 8 8 9 9 9 9 9 9 10 10 10 10 11 11 12 12 13 13 13 13 14 13 13 13 14 14 15 15 16 17 17 18 18 18 18 19 19 20 20 21 21 20
2 4 6 6 4 3 2 2 3 3 4 4 5 4 4 5 5 5 6 6 6 6 6 6 6 6 6 4 3 2 5 8 10 10 9 8 8 9 10 10 10 10 9 10 10 11 11 11 10 10 10 11 11 11 11 12 12 13 13 14 14 14 14 14 13 14 14 15 15 16 17 17 18 18 19 19 19 19 20 21 21 22 23 22 22
4 4 6 6 5 3 3 3 3 4 4 4 4 4 4 5 5 5 6 6 6 6 6 5 6 6 4 2 3 5 8 9 10 11 11 10 8 8 9 10 10 10 10 10 10 10 11 11 11 11 11 12 12 12 12 13 14 14 14 14 15 14 14 14 14 14 15 15 16 17 17 17 18 18 18 19 19 20 21 22 23 23 23 24 24
6 5 5 6 6 5 4 4 4 4 4 4 4 4 5 5 5 5 6 6 5 5 5 5 5 4 3 4 6 8 9 10 11 11 11 10 9 8 9 9 9 10 10 10 11 11 11 12 12 12 13 14 14 14 14 15 15 15 16 16 16 16 16 16 16 16 16 17 17 17 18 18 19 19 20 20 21 21 22 22 23 23 24 24 25
7 6 6 6 7 6 6 5 5 4 4 4 5 6 5 4 5 5 5 5 6 5 5 6 5 4 4 5 8 9 9 10 10 10 10 10 9 9 9 9 9 10 10 11 11 11 12 13 13 14 14 15 15 15 15 15 16 16 16 16 17 17 17 17 18 18 18 18 18 18 19 19 19 20 20 21 21 21 22 22 22 23 23 24 24
8 7 7 6 7 7 6 5 5 5 5 5 5 5 4 4 5 5 5 5 6 6 6 6 6 4 4 4 7 8 8 8 8 9 9 9 9 9 10 10 10 11 11 11 11 11 12 13 13 14 14 14 14 15 15 15 16 16 17 17 17 17 17 17 18 18 18 18 17 17 18 18 19 20 21 21 20 21 21 22 22 22 22 23 24
9 8 8 7 7 7 6 6 6 6 5 4 3 3 4 5 6 6 5 5 5 5 6 6 6 6 5 5 6 7 6 6 7 9 9 9 10 10 10 11 11 11 11 11 12 12 12 13 13 14 14 14 14 15 15 15 15 15 16 16 17 18 18 17 16 15 15 15 15 16 17 18 19 20 21 22 22 23 22 22 22 23 23 23 24
11 10 9 8 8 8 7 7 6 6 5 5 5 6 6 6 6 6 6 5 5 5 6 6 6 6 6 6 7 7 7 7 9 10 10 10 11 11 11 11 11 11 11 12 12 12 12 13 13 14 14 14 14 15 15 15 15 15 14 15 16 15 14 12 12 12 13 13 14 17 19 19 19 20 21 22 24 24 24 24 23 23 24 24 24
11 10 10 9 8 8 8 7 7 7 6 6 7 7 7 6 6 6 5 4 4 4 5 5 6 6 6 7 7 7 8 9 9 10 10 11 11 11 12 12 12 12 12 12 12 13 13 13 13 14 15 15 15 15 14 14 14 14 13 13 13 12 11 11 12 12 12 12 14 17 19 20 21 22 22 23 24 25 25 25 24 24 25 25 24
12 10 10 10 9 8 8 7 7 7 6 6 6 6 6 5 5 4 4 4 4 5 5 6 6 7 7 7 7 8 9 10 10 10 11 11 11 12 12 12 13 13 13 13 13 13 14 13 13 14 14 14 14 14 14 14 13 12 12 12 13 13 15 16 15 13 13 15 17 17 18 21 22 22 22 23 24 26 27 26 25 25 25 25 25
12 11 11 10 9 9 8 7 7 6 7 7 6 6 5 5 5 4 4 4 4 4 5 5 6 6 6 7 8 8 9 10 10 11 11 11 12 12 12 12 12 13 13 13 12 13 13 13 13 13 13 14 14 14 14 13 13 12 11 12 13 14 16 17 16 17 19 21 20 17 17 19 21 21 22 23 24 25 26 26 25 25 25 25 26
13 11 11 10 9 9 8 8 7 7 7 7 6 6 6 5 5 4 3 3 3 4 4 5 5 5 6 7 8 9 9 10 10 11 11 11 11 12 12 12 12 13 13 12 12 13 13 14 14 14 14 14 15 15 14 14 14 13 12 13 14 16 17 18 19 21 21 21 18 16 16 19 21 22 23 24 24 25 25 25 25 26 25 25 26
13 11 11 10 9 9 8 7 7 7 6 6 6 5 5 5 4 4 4 4 4 4 4 4 5 5 6 7 8 9 9 10 10 10 11 11 11 12 12 13 13 13 13 13 13 14 14 14 14 14 15 15 15 14 14 14 14 13 13 14 17 19 20 21 22 23 22 21 19 17 17 19 21 22 23 23 23 24 25 25 25 26 26 26 26
12 11 11 10 9 9 8 7 7 6 6 5 5 5 5 5 5 5 4 4 3 4 4 4 5 5 6 7 8 9 9 9 10 10 10 11 11 11 12 12 12 13 13 13 14 14 14 14 14 14 14 14 14 14 14 14 14 14 15 16 19 21 22 22 23 22 21 22 22 20 18 20 22 22 23 23 23 24 25 26 26 26 26 26 25
Wind_Direction
187 190 195 194 193 194 194 197 200 203 202 200 199 197 195 198 200 195 192 194 193 192 195 192 191 195 196 197 197 194 194 198 199 198 201 207 216 222 209 206 224 238 241 245 249 253 251 249 257 263 267 271 275 277 276 272 266 260 253 251 258 257 244 259 282 290 295 298 299 299 301 303 302 301 304 303 301 303 303 302 302 298 298 304 305
188 189 195 197 197 198 198 198 200 204 204 202 202 201 198 198 200 199 196 196 196 194 197 197 197 199 199 197 196 190 191 200 203 203 206 207 213 220 216 217 228 235 236 239 241 244 243 245 251 255 256 257 262 270 273 275 276 272 263 260 265 262 236 243 272 283 289 295 295 296 300 299 298 303 305 302 301 301 301 301 301 299 301 303 301
190 189 193 199 200 200 202 202 202 205 207 205 205 204 201 198 198 202 201 197 197 198 200 199 198 204 204 198 197 195 193 202 208 209 210 211 216 225 223 218 223 229 233 235 236 238 239 243 247 250 254 255 254 265 274 275 278 282 280 280 282 280 270 261 264 275 287 295 295 296 299 300 301 302 299 297 299 299 299 301 302 302 303 302 303
190 191 195 200 202 201 203 206 206 206 207 208 210 208 204 199 198 203 206 201 197 198 202 200 193 200 208 199 199 204 201 204 211 211 211 214 220 228 232 228 230 234 236 237 237 238 238 241 246 249 254 258 255 258 266 268 270 272 271 272 273 273 274 273 270 274 284 290 293 294 296 296 295 295 297 298 300 301 302 301 300 301 302 303 304
190 193 197 201 204 203 202 207 209 209 209 211 211 211 210 206 202 204 209 208 201 197 199 201 194 196 207 205 203 209 209 208 214 215 215 217 222 229 233 234 237 239 240 241 239 238 240 241 243 245 244 248 251 254 260 263 263 265 268 268 269 272 276 277 276 278 281 285 289 291 291 292 292 295 298 299 302 304 303 302 301 301 302 302 303
187 191 197 200 204 207 206 208 209 210 212 214 213 212 213 213 209 208 210 212 211 203 199 202 201 201 207 209 205 207 211 213 214 217 219 220 223 228 231 232 235 237 239 241 240 237 239 240 239 242 244 244 247 253 258 260 262 264 266 266 268 271 273 275 275 276 277 279 284 289 290 292 295 296 296 299 304 306 304 301 299 299 301 303 303
183 190 196 199 202 206 209 210 211 211 211 215 217 215 214 215 215 214 212 214 216 211 205 204 205 205 208 212 211 207 209 213 214 217 222 225 225 227 230 232 235 238 239 242 244 242 241 241 239 237 238 240 244 248 249 253 258 262 264 265 267 271 275 278 279 278 279 280 284 290 293 295 297 296 297 298 295 293 294 295 296 298 299 300 300
180 187 193 197 199 204 210 212 214 215 213 215 218 219 218 217 217 217 216 217 219 218 216 211 208 209 209 212 213 210 209 214 216 217 221 225 228 228 231 236 238 240 243 245 247 249 250 249 245 241 237 236 239 243 245 251 257 259 262 264 267 272 276 280 283 282 283 284 285 288 291 292 290 288 287 286 283 284 288 290 292 295 297 298 300
176 183 189 194 196 200 206 210 215 219 217 215 218 222 224 221 220 221 220 221 221 220 221 221 218 217 215 214 217 217 216 217 218 219 220 225 232 233 232 237 241 243 246 249 249 251 255 255 255 253 244 229 228 238 245 255 262 262 265 269 271 274 274 275 277 276 276 278 280 282 283 282 282 282 284 285 289 292 293 292 293 298 303 303 301
174 180 182 186 186 188 195 200 207 213 214 215 216 221 227 225 222 223 224 227 228 226 226 227 225 222 221 221 222 225 227 227 223 220 220 222 229 237 238 238 243 245 245 249 252 253 255 258 262 262 255 243 242 250 255 257 257 252 252 257 261 264 268 272 273 274 275 277 278 280 282 282 285 291 296 298 300 300 302 305 307 308 308 304 299
184 186 179 178 176 175 178 183 190 199 205 210 214 219 226 229 228 226 224 226 228 229 232 233 230 230 230 227 227 229 233 241 235 223 222 225 229 240 248 243 244 247 246 247 251 253 254 257 259 259 258 254 253 258 259 254 249 249 248 249 252 254 257 261 265 271 276 278 280 283 286 288 292 297 299 300 303 306 310 312 309 305 303 300 298
187 185 174 174 173 169 175 180 180 187 198 203 210 218 224 229 232 231 228 226 226 227 231 233 233 235 236 235 237 236 232 240 236 219 218 226 229 237 250 252 249 248 249 249 251 254 257 258 260 261 260 255 248 250 252 247 251 261 259 250 247 247 249 252 255 259 264 271 277 280 283 288 292 294 297 301 306 308 307 304 300 298 297 296 295
155 169 156 147 153 167 189 199 189 187 200 213 227 235 234 234 234 232 232 231 228 225 224 227 233 235 238 242 247 238 202 212 217 207 207 218 225 233 247 259 260 257 255 255 256 257 258 260 264 266 267 268 260 252 252 254 259 264 263 260 255 250 249 250 250 252 255 260 267 272 276 281 285 289 293 300 302 300 298 297 297 296 295 293 292
105 122 81 57 99 167 206 251 233 216 206 211 240 249 243 248 245 243 256 259 254 257 251 244 246 249 251 257 263 137 164 190 200 204 209 219 228 237 247 257 264 264 261 260 262 263 263 262 264 265 268 274 274 266 262 264 265 261 259 262 264 263 261 259 256 257 257 256 260 266 272 276 281 285 289 293 293 292 293 295 297 296 293 292 291
98 94 76 46 65 126 150 27 320 252 206 204 292 288 250 258 267 259 270 272 267 291 298 267 254 259 263 253 125 127 173 187 201 216 225 236 243 248 254 260 265 267 265 263 263 263 265 264 262 268 274 274 274 271 262 258 264 273 274 269 267 268 267 264 263 262 260 258 259 262 266 273 278 281 286 291 292 292 294 295 296 295 291 289 289
100 91 83 65 74 100 117 98 69 58 190 211 290 334 270 272 294 290 286 264 247 272 298 271 255 258 261 184 141 168 209 198 225 243 247 256 261 265 268 266 267 271 272 277 281 285 294 293 278 281 297 290 280 276 267 264 272 289 294 288 283 280 276 273 270 266 264 264 259 257 263 272 275 276 281 289 295 298 297 294 293 292 289 288 288
92 91 87 77 80 93 93 93 91 77 115 201 238 342 30 326 348 347 331 309 268 269 276 269 242 226 228 154 108 107 317 241 252 261 262 263 265 273 279 275 276 279 283 298 311 316 324 328 326 335 325 302 291 284 278 281 288 295 296 295 294 292 292 295 293 286 279 273 265 262 266 271 277 281 288 294 301 304 298 290 289 293 295 294 292
89 90 92 92 90 90 92 95 98 89 89 124 155 91 67 52 36 32 34 40 41 47 62 66 91 137 162 116 78 60 31 6 329 306 297 287 278 279 278 276 286 291 289 303 317 305 295 297 298 310 319 314 311 305 299 301 303 304 302 299 297 300 308 313 314 310 301 292 287 283 277 278 286 293 296 298 299 298 290 284 287 296 299 295 295
90 88 88 91 91 90 96 100 95 88 86 94 101 94 79 69 53 41 46 54 55 58 62 64 70 86 95 90 78 56 32 17 1 348 339 326 314 309 292 276 284 295 294 293 290 285 301 311 304 308 318 323 323 318 314 313 309 304 302 297 296 303 315 318 317 317 314 308 305 300 292 292 295 296 296 295 295 297 295 292 293 293 290 290 297
93 94 90 86 84 85 93 101 102 99 95 94 94 90 81 77 69 55 53 59 62 62 62 65 69 75 81 82 76 58 45 36 26 17 9 358 350 6 7 349 313 312 329 321 288 288 355 357 336 332 330 325 323 321 318 317 314 309 304 298 297 301 308 310 310 309 307 302 299 297 296 296 296 295 297 296 296 303 309 311 308 298 288 291 296
96 98 96 91 85 86 94 103 105 101 94 91 89 82 77 80 82 74 65 62 61 62 63 64 65 64 62 62 66 66 60 51 45 41 37 33 31 39 42 37 28 18 23 30 20 352 356 353 339 335 335 329 324 323 322 320 320 318 307 298 298 299 303 307 309 305 301 299 298 299 302 303 301 300 301 301 305 313 315 316 313 305 297 295 293
100 97 97 97 93 90 93 95 95 91 81 75 77 74 68 71 75 71 65 61 60 63 67 67 62 62 60 58 62 67 65 58 53 50 47 47 47 50 53 57 61 53 32 25 31 15 5 360 338 328 333 336 331 331 334 334 330 325 316 310 310 313 315 314 309 303 300 302 304 305 309 312 310 308 311 318 326 327 322 318 316 312 306 301 296
107 106 105 108 109 106 102 96 92 88 76 70 77 79 75 70 69 63 58 59 62 68 73 72 66 69 77 72 61 60 61 58 56 56 57 55 55 59 58 53 62 66 45 27 34 35 27 11 338 327 336 345 344 347 351 351 343 327 323 328 329 334 335 325 314 313 315 315 317 320 325 328 326 325 331 338 338 333 327 323 320 316 312 309 306
107 112 112 113 115 116 118 118 113 103 92 88 89 91 93 89 80 69 61 62 72 81 86 92 105 109 111 105 81 65 63 55 45 45 47 45 43 50 55 56 65 72 54 33 30 23 8 353 336 334 342 347 353 3 354 347 343 331 330 343 346 343 341 332 328 332 330 326 327 328 329 331 332 332 330 329 327 325 322 318 316 315 313 312 313
101 111 117 116 114 118 121 123 129 125 121 123 116 110 118 113 95 85 83 80 76 72 64 63 76 89 95 109 131 137 114 82 49 34 28 25 25 28 37 49 60 64 49 31 25 14 357 348 347 346 345 347 352 353 337 339 348 351 355 1 356 344 339 341 341 339 332 328 328 324 322 322 323 322 319 317 319 320 319 317 317 316 314 313 314
112 115 120 119 121 134 138 134 137 136 130 126 114 115 130 105 91 107 142 122 96 71 59 41 49 54 32 30 121 151 168 201 172 45 21 8 13 18 21 27 35 40 32 15 8 2 350 349 1 1 356 354 347 327 316 338 351 355 0 3 353 342 347 351 346 341 338 338 334 325 322 321 318 317 316 316 318 320 320 319 319 319 319 318 316
133 127 124 122 126 134 134 137 142 139 140 165 152 141 135 110 126 181 77 84 97 111 106 59 43 73 182 271 226 200 196 178 80 57 34 6 8 19 21 16 14 19 18 5 357 349 332 328 343 352 345 339 330 307 293 333 347 343 349 355 346 343 354 351 345 347 350 344 335 326 324 324 321 322 323 321 321 323 324 323 321 320 320 318 313
139 137 133 128 127 120 117 131 150 156 160 329 29 59 57 32 58 108 64 42 25 26 100 100 17 313 294 283 250 233 191 107 66 47 36 15 7 15 20 18 15 17 13 1 2 360 322 307 313 332 331 322 321 312 299 324 340 337 347 352 343 344 357 351 345 355 353 342 335 331 330 329 327 327 326 324 325 327 329 327 321 317 318 317 311
137 139 139 136 135 138 143 151 157 160 164 161 19 25 25 24 45 74 81 355 360 22 28 34 36 353 360 1 304 297 84 97 89 21 9 13 9 14 19 22 25 24 17 7 4 356 328 306 302 323 328 320 323 330 329 335 340 340 346 348 341 344 354 350 348 355 348 338 333 333 331 331 330 328 328 327 327 328 328 325 321 317 316 313 308
142 144 145 144 143 147 155 156 140 112 144 148 139 273 290 344 45 74 101 258 279 309 319 332 340 335 357 24 312 338 60 87 92 16 358 356 4 13 12 12 15 12 9 3 347 326 312 306 309 325 331 328 333 340 338 338 341 340 340 341 341 346 349 348 352 350 340 331 330 330 329 329 328 327 329 327 325 325 324 322 321 318 316 313 309
143 140 133 128 128 128 136 142 142 112 85 115 138 153 166 196 233 209 180 199 216 244 264 285 299 300 319 78 66 328 357 28 347 326 310 308 330 345 350 1 8 7 4 356 333 315 305 307 318 328 332 331 336 343 340 338 341 342 338 336 339 343 345 347 350 343 332 328 331 329 327 326 325 325 327 324 321 321 321 321 321 319 316 315 312
124 119 112 115 120 106 94 114 132 142 133 136 171 179 168 166 176 191 199 200 205 223 236 250 272 281 277 231 223 261 276 279 292 300 291 292 300 308 328 346 357 6 7 343 314 308 310 312 317 328 333 333 337 342 339 335 337 338 336 334 335 337 339 342 340 334 327 328 330 328 326 326 325 324 324 321 319 319 320 321 322 320 316 314 312
117 111 108 116 127 122 112 118 123 133 150 169 189 202 211 203 179 173 184 202 220 230 236 240 241 252 266 254 231 230 253 273 285 289 288 292 296 301 315 327 329 340 358 339 313 304 308 316 320 330 336 334 334 336 334 333 335 334 333 331 329 329 331 333 331 327 326 328 328 326 325 326 325 324 322 320 319 319 320 320 320 319 317 316 315
121 127 126 121 121 122 126 136 137 135 152 223 209 199 227 252 221 183 185 198 208 212 219 229 227 226 245 259 254 254 271 283 285 286 287 289 292 298 309 316 310 297 287 295 301 301 309 319 321 325 328 326 328 331 331 330 331 330 327 327 327 327 328 327 326 326 329 329 326 325 324 323 322 320 318 318 319 318 318 319 319 319 319 319 318
128 146 149 138 130 145 153 152 151 156 167 216 247 237 241 254 247 237 233 227 214 202 198 203 211 218 236 268 275 278 285 289 287 285 284 283 288 298 305 308 304 288 260 247 266 290 305 310 310 314 318 318 320 324 323 324 326 327 325 326 326 326 325 323 323 325 327 323 320 318 318 317 316 315 314 314 316 317 316 317 318 318 318 317 316
138 148 156 156 148 153 159 153 151 174 202 220 244 260 265 254 246 249 254 251 247 241 214 195 191 199 230 263 275 277 284 294 299 296 288 281 280 285 285 288 295 293 274 261 273 292 301 302 306 310 311 312 316 318 319 322 323 322 322 323 324 324 323 321 320 320 318 315 313 313 314 313 313 314 313 312 313 315 315 315 315 315 314 314 313
151 145 152 160 165 158 159 171 186 204 227 247 265 269 266 261 258 258 257 250 250 260 257 221 196 198 213 232 249 270 307 320 318 309 289 272 268 269 266 268 279 288 285 278 280 288 290 293 300 305 306 309 314 316 317 320 320 319 319 321 320 319 317 315 315 314 314 314 315 315 316 316 315 316 315 313 314 314 313 313 313 313 314 316 315
176 157 154 153 157 166 180 194 208 221 232 240 249 253 254 260 262 259 261 263 259 258 264 259 244 239 238 233 229 243 345 342 332 319 289 263 255 253 252 257 268 275 276 278 281 285 288 289 291 296 300 304 309 312 315 317 316 315 316 316 315 313 312 312 313 313 313 315 315 316 318 318 317 316 315 313 313 314 314 315 315 314 313 314 312
208 209 205 195 186 193 214 210 211 225 233 232 235 241 248 259 263 257 254 258 258 258 259 257 258 267 274 264 249 298 342 340 333 330 318 293 268 256 258 269 278 280 284 290 289 285 285 286 289 294 299 301 306 312 315 315 314 314 314 313 313 313 313 314 315 315 316 316 316 317 318 316 315 317 316 314 314 315 316 316 315 311 309 308 307
202 222 226 217 205 212 240 243 235 238 240 237 240 246 248 253 259 260 257 256 254 252 254 259 264 267 269 287 315 318 320 316 315 319 319 312 302 292 288 289 289 291 302 314 312 302 296 294 293 295 299 302 306 312 314 313 313 313 312 313 313 313 313 314 315 316 317 318 318 318 317 316 316 318 318 317 316 315 313 311 308 306 305 305 305
195 192 199 204 204 210 226 233 231 234 242 250 252 249 247 249 254 257 259 261 261 260 259 264 272 268 250 263 291 304 306 303 302 301 299 298 300 303 302 300 299 300 306 314 316 314 313 310 303 298 298 300 303 306 308 309 309 309 310 312 313 313 313 313 313 314 315 315 315 313 313 316 318 318 316 316 316 313 311 308 307 306 306 305 305
196 192 193 199 203 209 220 222 213 214 232 248 251 247 247 251 252 252 256 258 262 267 268 265 267 258 242 263 294 309 306 295 288 285 286 290 295 299 300 301 300 299 299 303 307 308 309 307 302 298 297 299 300 301 304 306 306 306 305 306 308 310 311 312 312 313 313 314 315 316 318 321 323 320 317 316 314 311 309 309 308 307 308 307 306
195 199 200 201 204 212 218 211 202 209 224 232 233 235 243 256 257 254 255 255 256 261 267 268 267 257 239 266 309 320 310 288 278 277 281 289 295 297 297 297 296 295 296 299 301 300 297 295 294 294 295 297 298 298 299 301 303 304 303 302 303 305 306 308 309 310 311 312 316 322 324 323 321 317 314 314 313 312 310 309 307 306 305 305 304
192 198 201 204 209 214 215 212 212 215 216 214 218 228 241 253 256 252 251 253 255 259 265 270 273 268 255 266 297 308 302 289 285 284 285 289 291 292 292 291 294 297 297 295 294 294 293 292 290 291 293 295 296 296 297 298 301 304 305 305 303 302 302 305 310 314 317 319 322 326 327 323 318 314 312 311 311 311 310 308 307 306 305 304 302
190 196 198 202 208 210 209 211 215 214 210 217 230 232 230 235 241 243 246 250 254 261 266 270 275 280 277 276 285 293 297 295 291 288 287 287 288 288 289 290 291 295 295 292 293 296 297 294 292 291 293 294 294 296 299 300 300 301 304 305 305 307 314 324 329 328 328 327 320 317 320 321 318 314 312 310 309 308 308 307 307 306 305 304 302
191 197 197 198 204 208 207 206 209 212 216 224 229 227 224 225 229 233 237 244 256 271 278 279 281 284 283 282 285 291 292 291 289 287 288 289 288 288 289 290 291 292 292 292 294 297 297 296 295 295 297 298 297 298 300 301 301 302 303 303 304 309 319 327 331 333 337 332 319 312 313 315 314 311 309 308 307 307 307 306 305 305 304 303 302
189 194 199 199 199 202 204 203 204 212 221 228 231 233 233 231 228 230 236 242 255 270 278 279 281 281 280 283 289 291 288 286 286 286 287 288 288 288 290 292 293 294 294 294 293 294 295 296 295 296 298 300 300 300 302 303 303 302 301 298 298 301 305 310 317 325 327 322 317 312 309 308 307 306 305 306 306 305 305 304 303 303 303 303 303
190 192 197 198 196 198 202 202 203 211 221 223 222 227 236 236 232 233 236 238 244 257 264 270 278 285 288 290 291 289 287 287 288 288 288 289 289 291 295 297 295 298 302 302 298 295 296 299 299 298 299 299 298 298 299 300 299 298 296 294 296 300 304 307 311 313 311 311 314 315 309 303 300 300 301 301 300 300 300 300 300 300 301 301 303
191 191 192 193 194 198 200 200 201 208 215 215 214 218 227 229 226 229 236 244 253 261 267 273 280 288 291 289 287 287 288 290 290 289 290 291 290 292 297 297 296 298 304 304 298 294 295 297 298 296 295 295 295 295 295 294 293 292 289 288 293 300 306 308 309 308 308 311 316 315 307 301 299 299 299 298 298 298 298 298 298 299 300 301 301
187 187 186 188 193 197 197 197 202 206 207 209 214 214 213 218 224 228 234 241 250 257 265 272 279 285 288 288 287 288 289 290 291 291 291 292 292 292 294 296 296 297 297 296 294 293 294 294 294 292 292 292 294 294 294 293 291 288 284 285 291 299 304 307 308 308 309 313 316 314 306 302 301 300 299 299 299 300 300 299 300 300 300 299 299
180 182 183 183 187 190 190 192 199 202 200 206 216 214 209 218 229 229 223 227 242 256 265 271 277 284 286 286 286 287 288 289 291 292 291 291 292 293 294 295 296 296 296 295 295 295 294 294 294 293 292 292 292 292 292 292 290 289 289 291 295 299 302 305 306 308 310 313 315 313 307 302 301 300 300 300 300 301 301 301 301 300 300 299 300